Flag for United Kingdom Weather past 2 weeks in Ipswich, England, United Kingdom

Now
63 °F

Rain showers. Partly sunny.


Feels Like: 63 °F
Forecast: 54 / 72 °F
Wind: 7 mph from Southwest

Location: Wattisham

Current Time: Jul 5, 2015 at 10:58:27 AM

Latest Report: Jul 5, 2015 at 9:50 AM


Visibility: N/A

Pressure: 30.04 "Hg

Humidity: 83%

Dew point: 57 °F

Location of IpswichLocation

Historic Weather in Ipswich — Graph

°F

Ipswich temperature yesterday

Maximum temperature yesterday: 82 °F (at 4:50 PM)
Minimum temperature yesterday: 59 °F (at 11:50 PM)
Average temperature yesterday: 72 °F

Past Weeks' High & Low Weather Summary

 TemperatureHumidityPressure
High84 °F (Jul 1, 3:50 PM)100% (Jun 20, 5:50 PM)30.30 "Hg (Jun 20, 5:50 PM)
Low50 °F (Jun 22, 10:50 PM)38% (Jun 29, 1:50 PM)29.74 "Hg (Jun 22, 11:50 AM)
Average64 °F71%30.05 "Hg
* Reported Jun 20 9:50 AM — Jul 5 9:50 AM, Ipswich, Weather by CustomWeather, © 2015

Note: Actual official high and low records may vary slightly from our data, if they occured in-between our weather recording intervals... More about our weather records

Advertising

Ipswich weather history for previous 24 hours

 ConditionsComfort  
Time TempWeatherWind HumidityBarometerVisibility
9:50 AM
Sun, Jul 5
63 °FRain showers. Partly sunny.7 mph83%30.04 "HgN/A
8:50 AM66 °FScattered clouds.3 mph68%30.04 "HgN/A
7:50 AM63 °FMild.5 mph83%30.04 "HgN/A
6:50 AM59 °FPassing clouds.6 mph94%30.07 "HgN/A
5:50 AM55 °FPassing clouds.5 mph94%30.07 "HgN/A
4:50 AM59 °FPassing clouds.1 mph82%30.07 "HgN/A
3:50 AM57 °FPassing clouds.No wind94%30.09 "HgN/A
2:50 AM57 °FPassing clouds.3 mph88%30.09 "HgN/A
1:50 AM57 °FPassing clouds.6 mph88%30.12 "HgN/A
12:50 AM59 °FPassing clouds.5 mph88%30.12 "HgN/A
11:50 PM
Sat, Jul 4
59 °FCool.7 mph88%30.12 "HgN/A
10:50 PM61 °FCool.8 mph83%30.09 "HgN/A
9:50 PM64 °FMild.6 mph78%30.09 "HgN/A
8:50 PM70 °FMild.7 mph64%30.09 "HgN/A
7:50 PM73 °FMild.9 mph53%30.07 "HgN/A
6:50 PM77 °FWarm.12 mph44%30.07 "HgN/A
5:50 PM81 °FWarm.14 mph45%30.07 "HgN/A
4:50 PM82 °FPassing clouds.13 mph42%30.07 "HgN/A
3:50 PM81 °FWarm.13 mph45%30.07 "HgN/A
2:50 PM81 °FWarm.15 mph48%30.04 "HgN/A
1:50 PM81 °FWarm.16 mph48%30.04 "HgN/A
12:50 PM79 °FWarm.15 mph54%30.04 "HgN/A
11:50 AM79 °FWarm.15 mph54%30.04 "HgN/A
10:50 AM77 °FWarm.16 mph54%30.01 "HgN/A
Weather by CustomWeather, © 2015

See weather overviewHow to use our weather pages